Location: Bemmer
(51.5498°N, 5.6249°E)
Time: 11:40:14
(UTC+00:00)

SL-16 R/B - Pass Details

Date: 03 March 2021
Orbit: 843 x 845 km, 71.0° (Epoch: 16 April)

Event Time Altitude Azimuth Distance (km) Brightness Sun altitude
Rises 17:47:35 0° 188° (S) 3,389 5.5 -4.8°
Reaches altitude 10° 17:50:06 10° 182° (S) 2,459 4.7 -5.2°
Maximum altitude 17:55:27 47° 111° (ESE) 1,117 2.5 -6.1°
Drops below altitude 10° 18:00:52 10° 39° (NE) 2,477 4.3 -6.9°
Sets 18:03:23 0° 34° (NE) 3,417 5.0 -7.3°
